This is the latest recevied weather packets stored in our database for station/object W7TRD. If no packets are shown the sender has not sent any weather packets the latest 10 day(s).
| Time | Temp. | Humidity | Pressure | Rain* | Wind** | Luminosity | Snow |
|---|---|---|---|---|---|---|---|
| 1788393559 | 15.56° C | 96% | 1008 hPa | 0 mm | - | 126 W/m² | - |
| 1788393255 | 15° C | 97% | 1008 hPa | 0 mm | - | 133 W/m² | - |
| 1788392955 | 15.56° C | 97% | 1008.1 hPa | 0 mm | - | 106 W/m² | - |
| 1788392650 | 15° C | 97% | 1008 hPa | 0 mm | - | 111 W/m² | - |
| 1788392349 | 15° C | 97% | 1007.9 hPa | 0 mm | - | 83 W/m² | - |
| 1788392043 | 15° C | 97% | 1008.1 hPa | 1.27 mm | - | 59 W/m² | - |
| 1788391742 | 15° C | 97% | 1007.9 hPa | 3.05 mm | - | 34 W/m² | - |
| 1788391437 | 15° C | 96% | 1008 hPa | 1.27 mm | - | 44 W/m² | - |
| 1788391136 | 15° C | 96% | 1007.7 hPa | 1.27 mm | - | 52 W/m² | - |
| 1788390832 | 15° C | 95% | 1008 hPa | 0 mm | - | 63 W/m² | - |
| 1788390526 | 15° C | 95% | 1007.8 hPa | 0 mm | - | 65 W/m² | - |
| 1788390226 | 15° C | 96% | 1007.9 hPa | 0 mm | - | 100 W/m² | - |
| 1788389926 | 15° C | 95% | 1007.7 hPa | 0 mm | - | 69 W/m² | - |
| 1788389621 | 15° C | 94% | 1007.9 hPa | 0 mm | - | 57 W/m² | - |
| 1788389319 | 15° C | 95% | 1007.9 hPa | 0 mm | - | 73 W/m² | - |
| 1788389014 | 15° C | 95% | 1007.8 hPa | 0 mm | - | 102 W/m² | - |
| 1788388711 | 15° C | 96% | 1007.7 hPa | 0 mm | - | 99 W/m² | - |
| 1788388406 | 15° C | 97% | 1007.7 hPa | 0 mm | - | 96 W/m² | - |
| 1788388105 | 15° C | 97% | 1007.7 hPa | 0 mm | - | 106 W/m² | - |
| 1788387804 | 15° C | 98% | 1007.9 hPa | 0 mm | - | 54 W/m² | - |
| 1788387499 | 15° C | 98% | 1007.9 hPa | 0 mm | - | 81 W/m² | - |
| 1788387198 | 15° C | 98% | 1007.7 hPa | 0 mm | - | 108 W/m² | - |
| 1788386894 | 15° C | 98% | 1007.7 hPa | 0 mm | - | 72 W/m² | - |
| 1788386593 | 15° C | 98% | 1007.7 hPa | 0 mm | - | 67 W/m² | - |
| 1788386289 | 14.44° C | 98% | 1007.7 hPa | 0 mm | - | 113 W/m² | - |
* Rain latest hour (hover to see other rain measurements)
** Current wind speed in m/s (hover to see current wind gust speed)